Location: Nashville
(36.1660°N, 86.7840°W)
Time: 05:56:09
(UTC-05:00)

BEESAT 2 - Visible Passes

Search period start: 22 May 2022 00:00
Search period end: 01 June 2022 00:00
Orbit: 488 x 509 km, 64.9° (Epoch: 22 May)

Date Brightness Start Highest point End Pass type
(mag) Time Alt. Az. Time Alt. Az. Time Alt. Az.
22 May ? 22:53:40 26° NNE 22:53:40 26° NNE 22:55:31 10° NNE visible
23 May ? 22:31:31 43° N 22:31:31 43° N 22:34:17 10° NNE visible
24 May ? 22:08:45 67° WSW 22:09:10 78° WNW 22:13:01 10° NNE visible
25 May ? 21:44:32 13° SSW 21:47:51 88° WNW 21:51:42 10° NNE visible
26 May ? 21:22:44 10° SSW 21:26:31 81° ESE 21:30:21 10° NNE visible
27 May ? 21:01:23 10° SSW 21:05:09 71° ESE 21:08:59 10° NE visible
27 May ? 22:42:40 10° NW 22:42:52 10° NW 22:43:03 10° NW visible
28 May ? 20:40:02 10° SSW 20:43:46 61° ESE 20:47:33 10° NE visible
28 May ? 22:20:12 10° WNW 22:21:24 11° NW 22:22:36 10° NNW visible
29 May ? 04:58:29 10° N 05:00:52 15° NE 05:03:13 10° E visible
29 May ? 21:58:16 10° WNW 21:59:55 12° NW 22:01:36 10° NNW visible
30 May ? 04:37:18 10° NNE 04:39:23 14° NE 04:41:28 10° E visible
30 May ? 21:36:25 10° W 21:38:25 14° NW 21:40:27 10° NNW visible
31 May ? 04:16:07 10° NNE 04:17:52 13° NE 04:19:37 10° ENE visible
31 May ? 21:14:36 10° W 21:16:53 15° NW 21:19:12 10° NNW visible
